Regional Weather Roundup
Issued by NWS Newport/Morehead, NC

Current Version | Previous Version | Graphics & Text | Print | Product List | Glossary Off
Versions: 1 2 3 4 5 6 7 8 9 10 11 12 13 14 15 16 17 18 19 20 21 22 23 24 25 26 27 28 29 30 31 32 33 34 35 36 37 38 39 40 41 42 43 44 45 46 47 48 49 50
000 ASUS42 KMHX 301725 RWRMHX WEATHER ROUNDUP FOR EASTERN NORTH CAROLINA NATIONAL WEATHER SERVICE NEWPORT/MOREHEAD CITY NC 100 PM EDT SAT JUL 30 2016 NOTE: "FAIR" INDICATES FEW OR NO CLOUDS BELOW 12,000 FEET WITH NO SIGNIFICANT WEATHER AND/OR OBSTRUCTIONS TO VISIBILITY NCZ015>017-031-032-045>047-102-103-301800- NORTH COAST CITY SKY/WX TMP DP RH WIND PRES REMARKS EDENTON LGT RAIN 89 75 63 E7 29.97F ELIZABETH CITY MOSUNNY 91 73 55 E12 29.99F KITTY HAWK SUNNY 90 79 70 E8 29.99F HX 106 MANTEO MOSUNNY 86 77 75 E13 30.00F $$ NCZ045>047-081-094-103-104-301800- CENTRAL COAST CITY SKY/WX TMP DP RH WIND PRES REMARKS FRISCO CLOUDY 85 79 82 E7 30.00F $$ NCZ095-097-098-100-101-301800- SOUTHERN COAST CITY SKY/WX TMP DP RH WIND PRES REMARKS BEAUFORT PTSUNNY 87 81 82 S12 30.00R HX 104 CEDAR ISLAND NOT AVBL JACKSONVILLE MOSUNNY 95 72 47 S7 29.97F HX 103 PINEY ISLAND NOT AVBL WILMINGTON MOSUNNY 95 73 48 SW10 29.98F HX 104 $$ NCZ011>013-027>030-043-044-078>080-089-090>093-098-301800- COASTAL PLAIN CITY SKY/WX TMP DP RH WIND PRES REMARKS AHOSKIE MOSUNNY 83 78 85 E3 29.97F CLINTON SUNNY 97 73 46 SW7 29.97F HX 107 ELIZABETHTOWN SUNNY 96 70 42 W14 29.98F HX 102 GOLDSBORO CLOUDY 81 73 78 E2 29.95F GREENVILLE CLOUDY 95 77 55 S8 29.98F HX 109 HAVELOCK MOSUNNY 93 75 55 VRB3 29.99S HX 104 KENANSVILLE NOT AVBL KINSTON SUNNY 97 72 44 S9 29.96F HX 105 NEW BERN SUNNY 94 77 57 S8 29.99F HX 108 RICHLANDS SUNNY 98 75 47 S7 29.98F HX 110 ROCKY MOUNT CLOUDY 89 77 67 S7 29.97F HX 101 WASHINGTON SUNNY 91 78 67 SE9 29.97F HX 105 WHITEVILLE SUNNY 95 70 44 SW7 29.98F HX 101 $$ AMZ130-135-150-152-154-156-158-170-250-252-270-ANZ085-086-088-633-658-670-301800- MARINE OBSERVATIONS STATION/POSITION TIME TEMP WIND PRES WAVE SWELL AIR SEA DIR/SP/G HT/PER HT/PER (UTC) (F) (DEG/KT/KT) (MB) (FT/S) (FT/S) CHESAPEAKE LIGHT NOT AVBL 64 E VA BEACH 1650 81 83 90/ 8/ 10 1016.3 3/ 6 3/ 6 DUCK 1700 83 80 100/ 11/ 12 1015.2 2 E DUCK 1611 82 N/A 2/ 7 OREGON INLET 1700 83 76 80/ 8/ 11 1015.6 13E OREGON INLT 1700 82 N/A 2/ 6 2/ 6 HATTERAS CG 1700 84 83 140/ 6/ 9 1015.6 DIAMOND BUOY 1650 83 85 220/ 10/ 10 1016.0 2/ 7 2/ 7 CAPE LOOKOUT 1700 86 210/ 8/ 12 1015.7 BEAUFORT LAB 1700 85 84 180/ 9/ 11 1015.2 30 SE NEW RVR IN 1708 85 85 210/ 10/ 14 1016.0 30 SE NEW RVR IN 1625 85 N/A 3/ 6 27 SE WRIGHTSVLE 1708 85 85 200/ 10/ 14 1016.2 5 SE WRIGHTSVLE 1708 83 82 200/ 14/ 17 1016.2 225 S CAPE HAT 1650 85 85 220/ 10/ 12 1018.5 3/ 6 2/ 6 41 SE CHARLESTON 1650 85 86 250/ 10/ 10 1016.6 3/ 6 3/ 6 $$

USA.gov is the U.S. government's official web portal to all federal, state and local government web resources and services.